Regional Weather Roundup
Issued by NWS

Home | Current Version | Previous Version | Text Only | Print | Product List | Glossary On
Versions: 1 2 3 4 5 6 7 8 9 10 11 12 13 14 15 16 17 18 19 20 21 22 23 24 25 26 27 28 29 30 31 32 33 34 35 36 37 38 39 40 41 42 43 44 45 46 47 48 49 50
000
ASCA44 KEWX 191720
RWRMX

LATIN AMERICA AND CARIBBEAN REGIONAL WEATHER ROUNDUP
NATIONAL WEATHER SERVICE AUSTIN/SAN ANTONIO TX
1200 PM CDT SAT AUG 19 2017

NOTE: "FAIR" INDICATED FEW OR NO CLOUDS BELOW 12,000 FEET WITH NO
SIGNIFICANT WEATHER AND/OR OBSTRUCTIONS TO VISIBILITY.

BAJA CALIFORNIA

CITY           SKY/WX    TMP DP  RH WIND       PRES   REMARKS
LORETO         PTSUNNY   84  79  84 N20G31    29.89R HX  96
LA PAZ         PTSUNNY   86  70  58 S8        29.93R HX  90
MEXICALI       SUNNY     90  75  62 SE8       29.86R HX 100
S.J. DEL CABO  PTSUNNY   90  66  45 CALM      29.92  HX  92
TIJUANA        CLOUDY    68  63  83 CALM      30.01S

NORTHWESTERN MEXICO

CITY           SKY/WX    TMP DP  RH WIND       PRES   REMARKS
CULIACAN       PTSUNNY   86  75  70 NW5       29.91S HX  95
DURANGO        CLOUDY    68  57  68 CALM      30.32S
GUAYMAS        CLOUDY    90  79  70 CALM      29.86S HX 105
HERMOSILLO     CLOUDY    84  75  74 CALM      29.97R HX  92
CD. JUAREZ     CLOUDY    77  59  53 E9        30.16S
LOS MOCHIS     PTSUNNY   88  72  58 SE12      29.92S HX  94
OBREGON        CLOUDY    86  70  58 SE6       29.90R HX  90

NORTHEASTERN MEXICO

CITY           SKY/WX    TMP DP  RH WIND       PRES   REMARKS
CHIHUAHUA      MOSUNNY   73  63  68 E7        30.21R
MATAMOROS      PTSUNNY   93  73  52 SE8       29.98F HX 102
MONCLOVA       MOSUNNY   88  66  48 CALM      30.05S HX  90
MONTERREY      MOSUNNY   86  66  51 S6        30.00S
NUEVO LAREDO   SUNNY     90  72  55 S6        29.99S HX  96
PIEDRAS NEGRAS SUNNY     90  73  58 E6        30.03S HX  98
REYNOSA        MOSUNNY   90  64  43 SE9       29.97F HX  91
SALTILLO       SUNNY     86  68  54 CALM      30.24F
TORREON        MOSUNNY   79  64  61 CALM      30.16F
CD. VICTORIA   SUNNY     91  63  38 S12       29.97F HX  92

WESTERN MEXICO

CITY           SKY/WX    TMP DP  RH WIND       PRES   REMARKS
AGUASCALIENTES PTSUNNY   72  52  49 NE8       30.33F
COLIMA         PTSUNNY   81  72  74 CALM      30.03F
DEL BAJIO      PTSUNNY   73  59  60 W6        30.35F
GUADALAJARA    PTSUNNY   72  59  64 N6        30.25F
MANZANILLO     PTSUNNY   91  75  59 CALM      29.88F HX 102
MAZATLAN       PTSUNNY   88  79  74 E3        29.93F HX 102
P. VALLARTA    PTSUNNY   90  75  62 CALM      29.92F HX 100
URUAPAN        CLOUDY    73  61  64 CALM      30.20F
ZACATECAS      PTSUNNY   68  52  56 CALM      30.36F

CENTRAL MEXICO

CITY           SKY/WX    TMP DP  RH WIND       PRES   REMARKS
CUERNAVACA       N/A    N/A N/A N/A MISG        N/A
MEXICO CITY    MOSUNNY   66  52  59 NE3       30.37F
MORELIA        MOSUNNY   70  59  68 NW5       30.29F
POZA RICA      PTSUNNY   88  75  66 NE6       30.03F HX  97
PUEBLA         MOSUNNY   68  50  52 CALM      30.36F
QUERETARO      MOSUNNY   70  55  60 E12       30.36S
S. LUIS POTOSI MOSUNNY   73  48  40 NE7       30.30F
TAMPICO        MOSUNNY   88  73  62 S7        29.97F HX  96
TOLUCA         MOSUNNY   63  52  67 NE6       30.42F

SOUTHERN MEXICO

CITY           SKY/WX    TMP DP  RH WIND       PRES   REMARKS
ACAPULCO       PTSUNNY   88  77  70 SW9       29.89F HX 100
B. DE HUATULCO MOSUNNY  N/A N/A N/A CALM      29.94S
OAXACA         MOSUNNY   73  52  46 S5        30.25F
P. ESCONDIDO   MOSUNNY   86  72  62 SE7       29.99S HX  92
VERACRUZ       MOSUNNY   86  75  70 S3        29.98F HX  95
ZIHUATANEJO    MOSUNNY   91  77  62 S6        29.89F HX 105

YUCATAN PENINSULA

CITY           SKY/WX    TMP DP  RH WIND       PRES   REMARKS
CAMPECHE       MOSUNNY   90  79  70 E9        29.93F HX 105
CANCUN         MOSUNNY   88  75  66 E7        29.96F HX  97
CHETUMAL       MOSUNNY   91  75  59 CALM      29.94F HX 102
CD. DEL CARMEN SUNNY    N/A N/A N/A SE9       29.96F
COZUMEL        MOSUNNY   88  77  70 E9        29.94F HX 100
MERIDA         PTSUNNY   93  72  49 NE5       29.95F HX 100
MINATITLAN     PTSUNNY   86  82  89 N12       29.95S HX 105
TAPACHULA      MOSUNNY   91  79  66 W7        29.85F HX 107
TUX. GUTIERREZ MOSUNNY   81  68  65 CALM      29.99F
VILLAHERMOSA   MOSUNNY   86  73  66 E6        29.97F HX  93

CENTRAL AMERICA

CITY           SKY/WX    TMP DP  RH WIND       PRES   REMARKS
BELIZE CITY    MOSUNNY   90  79  70 NE7       29.93F HX 105
MANAGUA        MOSUNNY   91  73  55 E7        29.83F HX 100

CARIBBEAN

CITY           SKY/WX    TMP DP  RH WIND       PRES   REMARKS
ARUBA          MOSUNNY   84  75  74 N7        29.80S HX  92
CURACAO        MOSUNNY   84  75  74 E5        29.80F HX  92
KINGSTON       MOSUNNY   90  77  66 S9        29.89S HX 102
NASSAU         PTSUNNY   88  81  79 E10       30.00F HX 105
SAN JUAN       MOSUNNY   88  79  74 E21       29.91F HX 102
SANTO DOMINGO  PTSUNNY   88  79  74 NE9       29.89S HX 102
ST. CROIX      SUNNY     90  73  58 E13G22    29.91S HX  98
ST. MAARTEN    SHOWER    86  81  84 E10       29.89F HX 102
ST. THOMAS     MOSUNNY   88  81  79 E14       29.90S HX 105

$$





USA.gov is the U.S. government's official web portal to all federal, state and local government web resources and services.